Printer-friendly version

IAU Minor Planet Center

Minor Planet Center

MPEC 2007-P35 : 2007 PA8

The following Minor Planet Electronic Circular may be linked-to from your own Web pages, but must not otherwise be redistributed electronically.


Read MPEC 2007-P34 Read MPEC 2007-P36


M.P.E.C. 2007-P35                                Issued 2007 Aug. 11, 18:14 UT

     The Minor Planet Electronic Circulars contain information on unusual
         minor planets and routine data on comets.  They are published
   on behalf of Commission 20 of the International Astronomical Union by the
          Minor Planet Center, Smithsonian Astrophysical Observatory,
                          Cambridge, MA 02138, U.S.A.

             Prepared using the Tamkin Foundation Computer Network

                              MPC@CFA.HARVARD.EDU
          URL http://www.cfa.harvard.edu/iau/mpc.html  ISSN 1523-6714

                                   2007 PA8

Observations:
     K07P08A* C2007 08 09.21035 20 47 42.86 -17 14 03.9          19.6   EP035704
     K07P08A  C2007 08 09.23409 20 47 40.90 -17 14 14.5          19.7   EP035704
     K07P08A  C2007 08 09.24592 20 47 39.97 -17 14 19.2          20.0   EP035704
     K07P08A  C2007 08 09.25774 20 47 39.09 -17 14 24.1          19.7   EP035704
     K07P08A  C2007 08 10.23130 20 46 21.58 -17 20 07.4          19.8 R EP035734
     K07P08A  C2007 08 10.23351 20 46 21.42 -17 20 08.4          19.3 R EP035734
     K07P08A  C2007 08 10.23566 20 46 21.27 -17 20 09.0          19.1 R EP035734
     K07P08A  C2007 08 10.23997 20 46 20.95 -17 20 10.9          20.1 R EP035734
     K07P08A  C2007 08 10.90641 20 45 27.82 -17 24 08.0                 EP035J95
     K07P08A  C2007 08 10.95298 20 45 24.03 -17 24 22.9                 EP035J95
     K07P08A IC2007 08 10.96522 20 45 23.02 -17 24 27.3          19.2 R EP035J95
     K07P08A  C2007 08 11.03639 20 45 17.16 -17 24 53.2                 EP035204
     K07P08A  C2007 08 11.04479 20 45 16.49 -17 24 56.1          19.5 R EP035204
     K07P08A  C2007 08 11.14895820 45 08.47 -17 25 32.7          19.8   EP035H55
     K07P08A  C2007 08 11.15946220 45 07.60 -17 25 36.5          19.8   EP035H55
     K07P08A  C2007 08 11.17004120 45 06.74 -17 25 40.0          19.8   EP035H55

Observer details:
204 Schiaparelli Observatory.  Observers L. Buzzi, F. Luppi.  Measurer
    L. Buzzi.  0.60-m f/4.64 reflector + CCD.
704 Lincoln Laboratory ETS, New Mexico.  Observers M. Bezpalko, D. Torres,
    R. Kracke, G. Spitz, J. Kistler.  Measurers J. Stuart, S. Scruggs.  1.0-m
    f/2.15 reflector + CCD.
734 Farpoint Observatory.  Observer G. Hug.  0.7-m reflector + CCD.
H55 Astronomical Research Observatory, Charleston.  Observer R. Holmes.
    0.81-m f/4.0 astrograph + CCD.
J95 Great Shefford.  Observer P. Birtwhistle.  0.40-m f/6.0 Schmidt-Cassegrain
    + CCD.

Orbital elements:
2007 PA8                                            PHA, Earth MOID = 0.0140 AU
Epoch 2007 Oct. 27.0 TT = JDT 2454400.5                 MPC
M 336.26442              (2000.0)            P               Q
n   0.18885856     Peri.  296.45201     +0.20087557     -0.97932176
a   3.0086957      Node   141.93527     +0.91209566     +0.17802089
e   0.7079646      Incl.    2.23454     +0.35739405     +0.09611167
P   5.22           H   16.2           G   0.15           U   9
Residuals in seconds of arc
070809 704  0.2-  2.0+    070810 734  0.1+  0.2+    070811 204  0.1-  0.4-
070809 704  0.7-  0.2-    070810 734  0.6+  0.2-    070811 H55  0.3+  0.4-
070809 704  0.2-  0.7-    070810 J95  0.0   1.0-    070811 H55  0.1+  0.5-
070809 704  0.9+  1.4-    070810 J95  0.0   0.7+    070811 H55  0.2+  0.2-
070810 734  0.5-  0.2+    070810 J95  0.2-  0.6+
070810 734  0.2-  0.0     070811 204  0.3-  0.5-

Ephemeris:
2007 PA8                 a,e,i = 3.01, 0.71, 2                   q = 0.8786
Date    TT    R. A. (2000) Decl.     Delta      r     Elong.  Phase     V
2007 08 08    20 49.31   -17 06.9    1.576    2.588   175.0     1.9    19.5
2007 08 18    20 35.97   -18 05.3    1.524    2.507   162.1     7.1    19.6
2007 08 28    20 23.11   -18 59.0    1.500    2.424   149.3    12.3    19.7
2007 09 07    20 12.08   -19 43.8    1.499    2.340   137.0    17.1    19.8
2007 09 17    20 03.96   -20 17.3    1.518    2.253   125.2    21.4    19.9
2007 09 27    19 59.43   -20 39.0    1.549    2.164   114.4    25.0    20.0
2007 10 07    19 58.71   -20 49.3    1.586    2.074   104.3    27.8    20.0
2007 10 17    20 01.79   -20 48.3    1.625    1.981    95.1    30.1    20.0
2007 10 27    20 08.46   -20 35.9    1.661    1.887    86.8    31.7    20.0
2007 11 06    20 18.43   -20 11.6    1.690    1.791    79.1    32.9    20.0
2007 11 16    20 31.45   -19 34.2    1.710    1.693    72.2    33.8    19.9
2007 11 26    20 47.29   -18 41.9    1.718    1.595    66.0    34.4    19.8
2007 12 06    21 05.76   -17 33.0    1.713    1.495    60.4    34.9    19.7

Sonia Keys                   (C) Copyright 2007 MPC           M.P.E.C. 2007-P35

Read MPEC 2007-P34 Read MPEC 2007-P36


Our Web policy. Index to the CBAT/MPC/ICQ pages.


Valid HTML 4.01!